LNFTS ENKJ-ENRI

Flight info

Callsign LNFTS
Flight time 0h 51m
Altitude 3000
Route DCT
Aircraft DA40/L-SBDFGRY/S

Departure

Time 2026-05-07 17:00
Airport Lillestrøm Airfield, Kjeller (ENKJ)

Arrival

Time 2026-05-07 17:52
Airport Ringebu Airfield Frya (ENRI)
Time Latitude Longitude Altitude Speed Heading
2026-05-07 16:51 59.96898 11.04934 353 ft 0 kts 234°
2026-05-07 16:55 59.96886 11.04901 356 ft 5 kts 234°
2026-05-07 16:55 59.96861 11.04832 354 ft 7 kts 235°
2026-05-07 16:55 59.96839 11.04839 354 ft 7 kts 136°
2026-05-07 16:55 59.96814 11.04878 354 ft 0 kts 130°
2026-05-07 16:57 59.96813 11.04881 354 ft 2 kts 138°
2026-05-07 16:57 59.96782 11.04905 359 ft 3 kts 191°
2026-05-07 16:57 59.96756 11.04837 355 ft 7 kts 244°
2026-05-07 16:58 59.96751 11.04815 361 ft 0 kts 243°
2026-05-07 16:58 59.96751 11.04814 361 ft 2 kts 244°
2026-05-07 16:58 59.96735 11.04741 357 ft 7 kts 247°
2026-05-07 16:59 59.96716 11.04660 355 ft 3 kts 264°
2026-05-07 16:59 59.96725 11.04618 356 ft 0 kts 304°
2026-05-07 16:59 59.96786 11.04427 356 ft 43 kts 303°
2026-05-07 16:59 59.97022 11.03711 412 ft 73 kts 303°
2026-05-07 17:00 59.97315 11.02873 616 ft 77 kts 302°
2026-05-07 17:00 59.97632 11.01900 774 ft 88 kts 296°
2026-05-07 17:00 59.97914 11.00747 958 ft 94 kts 294°
2026-05-07 17:00 59.98169 10.99554 1179 ft 92 kts 291°
2026-05-07 17:01 59.98432 10.98373 1383 ft 94 kts 295°
2026-05-07 17:01 59.98777 10.97268 1608 ft 94 kts 302°
2026-05-07 17:01 59.99153 10.96207 1832 ft 94 kts 303°
2026-05-07 17:01 59.99593 10.95215 2003 ft 100 kts 312°
2026-05-07 17:02 60.00118 10.94142 2007 ft 114 kts 314°
2026-05-07 17:02 60.00712 10.92987 2006 ft 122 kts 317°
2026-05-07 17:02 60.01365 10.91868 2005 ft 124 kts 319°
2026-05-07 17:02 60.02038 10.90799 2004 ft 123 kts 322°
2026-05-07 17:03 60.02727 10.89788 2003 ft 123 kts 326°
2026-05-07 17:03 60.03518 10.89171 2003 ft 123 kts 349°
2026-05-07 17:03 60.04365 10.88926 2005 ft 123 kts 353°
2026-05-07 17:03 60.05218 10.88709 2005 ft 123 kts 353°
2026-05-07 17:04 60.06069 10.88489 2003 ft 124 kts 353°
2026-05-07 17:04 60.06925 10.88269 2002 ft 124 kts 351°
2026-05-07 17:04 60.07729 10.87668 1998 ft 123 kts 335°
2026-05-07 17:04 60.08507 10.86951 1999 ft 123 kts 335°
2026-05-07 17:05 60.09279 10.86218 1999 ft 123 kts 331°
2026-05-07 17:05 60.10003 10.85355 1998 ft 122 kts 328°
2026-05-07 17:05 60.10712 10.84379 1998 ft 122 kts 318°
2026-05-07 17:05 60.11309 10.83199 1998 ft 122 kts 313°
2026-05-07 17:06 60.11897 10.81961 1998 ft 122 kts 313°
2026-05-07 17:06 60.12491 10.80704 2000 ft 123 kts 313°
2026-05-07 17:06 60.13078 10.79475 1999 ft 124 kts 313°
2026-05-07 17:06 60.13668 10.78229 1997 ft 123 kts 311°
2026-05-07 17:07 60.14192 10.76880 1998 ft 122 kts 306°
2026-05-07 17:07 60.14697 10.75509 1997 ft 122 kts 306°
2026-05-07 17:07 60.15206 10.74128 1998 ft 121 kts 306°
2026-05-07 17:07 60.15702 10.72775 2000 ft 123 kts 306°
2026-05-07 17:08 60.16317 10.71602 1984 ft 124 kts 335°
2026-05-07 17:08 60.17123 10.71042 1949 ft 125 kts 342°
2026-05-07 17:08 60.18026 10.70873 1733 ft 135 kts
2026-05-07 17:08 60.18950 10.70955 1699 ft 129 kts
2026-05-07 17:09 60.19830 10.70940 1697 ft 125 kts 354°
2026-05-07 17:09 60.20680 10.70739 1698 ft 122 kts 353°
2026-05-07 17:09 60.21522 10.70529 1698 ft 121 kts 353°
2026-05-07 17:09 60.22359 10.70324 1698 ft 121 kts 353°
2026-05-07 17:10 60.23188 10.70076 1622 ft 125 kts 346°
2026-05-07 17:10 60.24010 10.69452 1530 ft 127 kts 332°
2026-05-07 17:10 60.24683 10.68361 1509 ft 124 kts 304°
2026-05-07 17:10 60.24932 10.66691 1446 ft 125 kts 288°
2026-05-07 17:11 60.25584 10.66071 1470 ft 120 kts 27°
2026-05-07 17:11 60.26315 10.66889 1443 ft 122 kts 11°
2026-05-07 17:11 60.27137 10.66739 1485 ft 117 kts 342°
2026-05-07 17:11 60.27900 10.66211 1544 ft 114 kts 340°
2026-05-07 17:12 60.28635 10.65641 1604 ft 114 kts 338°
2026-05-07 17:12 60.29373 10.65058 1728 ft 113 kts 339°
2026-05-07 17:12 60.30110 10.64490 1846 ft 114 kts 339°
2026-05-07 17:12 60.30851 10.63918 1958 ft 114 kts 339°
2026-05-07 17:13 60.31594 10.63344 2073 ft 115 kts 338°
2026-05-07 17:13 60.32342 10.62768 2187 ft 115 kts 339°
2026-05-07 17:13 60.33094 10.62189 2289 ft 116 kts 338°
2026-05-07 17:13 60.33860 10.61604 2399 ft 118 kts 339°
2026-05-07 17:14 60.34636 10.61009 2541 ft 120 kts 339°
2026-05-07 17:14 60.35417 10.60421 2658 ft 119 kts 338°
2026-05-07 17:14 60.36197 10.59832 2737 ft 121 kts 338°
2026-05-07 17:14 60.36991 10.59246 2844 ft 121 kts 338°
2026-05-07 17:15 60.37766 10.58665 2986 ft 120 kts 338°
2026-05-07 17:15 60.38573 10.58063 2997 ft 128 kts 339°
2026-05-07 17:15 60.39437 10.57502 2995 ft 132 kts 349°
2026-05-07 17:15 60.40360 10.57236 2997 ft 136 kts 355°
2026-05-07 17:16 60.41312 10.57273 2997 ft 138 kts
2026-05-07 17:16 60.42274 10.57383 2998 ft 139 kts
2026-05-07 17:16 60.43247 10.57509 2996 ft 140 kts
2026-05-07 17:16 60.44217 10.57637 2993 ft 140 kts
2026-05-07 17:17 60.45188 10.57758 2999 ft 139 kts
2026-05-07 17:17 60.46147 10.57876 2997 ft 138 kts
2026-05-07 17:17 60.47102 10.57995 2993 ft 137 kts
2026-05-07 17:17 60.48050 10.58117 2991 ft 136 kts
2026-05-07 17:18 60.48990 10.58322 2986 ft 135 kts
2026-05-07 17:18 60.49919 10.58628 2986 ft 135 kts
2026-05-07 17:18 60.50849 10.58939 2989 ft 136 kts
2026-05-07 17:18 60.51784 10.59257 2993 ft 137 kts
2026-05-07 17:19 60.52715 10.59579 2991 ft 138 kts
2026-05-07 17:19 60.53667 10.59899 2989 ft 139 kts
2026-05-07 17:19 60.54622 10.60223 2989 ft 139 kts
2026-05-07 17:19 60.55570 10.60547 2987 ft 137 kts
2026-05-07 17:20 60.56514 10.60868 2994 ft 138 kts
2026-05-07 17:20 60.57464 10.61188 2992 ft 138 kts
2026-05-07 17:20 60.58410 10.61498 2994 ft 137 kts
2026-05-07 17:20 60.59358 10.61809 2991 ft 138 kts
2026-05-07 17:21 60.60301 10.62128 2999 ft 138 kts 10°
2026-05-07 17:21 60.61249 10.62467 2996 ft 138 kts 11°
2026-05-07 17:21 60.62192 10.62809 2998 ft 137 kts 11°
2026-05-07 17:21 60.63134 10.63155 3000 ft 137 kts 11°
2026-05-07 17:22 60.64075 10.63508 2997 ft 138 kts 10°
2026-05-07 17:22 60.65023 10.63866 2994 ft 138 kts 10°
2026-05-07 17:22 60.65962 10.64224 2991 ft 137 kts 10°
2026-05-07 17:22 60.66893 10.64579 2993 ft 136 kts 11°
2026-05-07 17:23 60.67827 10.64933 2999 ft 137 kts 10°
2026-05-07 17:23 60.68769 10.65289 2998 ft 138 kts 11°
2026-05-07 17:23 60.69717 10.65639 2994 ft 138 kts 10°
2026-05-07 17:23 60.70657 10.65984 2998 ft 138 kts 11°
2026-05-07 17:24 60.71590 10.66328 2998 ft 137 kts 11°
2026-05-07 17:24 60.72527 10.66665 3001 ft 137 kts
2026-05-07 17:24 60.73472 10.66985 2997 ft 137 kts
2026-05-07 17:24 60.74415 10.67307 3001 ft 137 kts
2026-05-07 17:25 60.75362 10.67632 2998 ft 138 kts
2026-05-07 17:25 60.76310 10.67959 2997 ft 138 kts
2026-05-07 17:25 60.77250 10.68286 2997 ft 136 kts
2026-05-07 17:25 60.78182 10.68604 2997 ft 135 kts
2026-05-07 17:26 60.79115 10.68922 2992 ft 136 kts 10°
2026-05-07 17:26 60.80052 10.69195 2999 ft 137 kts
2026-05-07 17:26 60.80997 10.68949 2996 ft 136 kts 346°
2026-05-07 17:26 60.81914 10.68468 2999 ft 136 kts 345°
2026-05-07 17:27 60.82828 10.67975 2994 ft 136 kts 345°
2026-05-07 17:27 60.83738 10.67479 2996 ft 135 kts 344°
2026-05-07 17:27 60.84655 10.66983 2996 ft 137 kts 345°
2026-05-07 17:27 60.85576 10.66481 3001 ft 138 kts 345°
2026-05-07 17:28 60.86509 10.65987 2999 ft 138 kts 345°
2026-05-07 17:28 60.87438 10.65499 2998 ft 137 kts 345°
2026-05-07 17:28 60.88355 10.65016 2997 ft 135 kts 345°
2026-05-07 17:28 60.89267 10.64525 3003 ft 136 kts 345°
2026-05-07 17:29 60.90182 10.63986 2993 ft 136 kts 338°
2026-05-07 17:29 60.91046 10.63216 2995 ft 135 kts 335°
2026-05-07 17:29 60.91900 10.62422 2970 ft 133 kts 334°
2026-05-07 17:29 60.92724 10.61659 3005 ft 132 kts 335°
2026-05-07 17:30 60.93563 10.60890 2998 ft 132 kts 335°
2026-05-07 17:30 60.94406 10.60118 3004 ft 133 kts 335°
2026-05-07 17:30 60.95248 10.59338 3004 ft 132 kts 334°
2026-05-07 17:30 60.96087 10.58566 3004 ft 132 kts 335°
2026-05-07 17:31 60.96928 10.57782 2995 ft 132 kts 335°
2026-05-07 17:31 60.97764 10.56999 3002 ft 132 kts 334°
2026-05-07 17:31 60.98597 10.56231 2998 ft 131 kts 335°
2026-05-07 17:31 60.99425 10.55462 3001 ft 131 kts 334°
2026-05-07 17:32 61.00255 10.54697 2996 ft 131 kts 335°
2026-05-07 17:32 61.01089 10.53927 3004 ft 131 kts 334°
2026-05-07 17:32 61.01918 10.53157 3004 ft 131 kts 334°
2026-05-07 17:32 61.02466 10.52649 3008 ft 131 kts 334°
2026-05-07 17:33 61.03583 10.51616 2999 ft 132 kts 335°
2026-05-07 17:33 61.04417 10.50831 2996 ft 132 kts 335°
2026-05-07 17:33 61.05254 10.50052 3008 ft 132 kts 334°
2026-05-07 17:33 61.06094 10.49282 3001 ft 132 kts 334°
2026-05-07 17:34 61.06934 10.48513 3009 ft 132 kts 334°
2026-05-07 17:34 61.07775 10.47757 3006 ft 131 kts 335°
2026-05-07 17:34 61.08609 10.46972 3011 ft 132 kts 329°
2026-05-07 17:34 61.09370 10.45893 3007 ft 133 kts 321°
2026-05-07 17:35 61.10082 10.44706 3005 ft 130 kts 320°
2026-05-07 17:35 61.10779 10.43518 3021 ft 129 kts 320°
2026-05-07 17:35 61.11456 10.42351 3020 ft 128 kts 320°
2026-05-07 17:35 61.12146 10.41159 3017 ft 127 kts 320°
2026-05-07 17:36 61.12814 10.40007 3016 ft 126 kts 320°
2026-05-07 17:36 61.13494 10.38893 3012 ft 124 kts 326°
2026-05-07 17:36 61.14331 10.38551 3020 ft 125 kts
2026-05-07 17:36 61.15198 10.38950 3019 ft 131 kts 14°
2026-05-07 17:37 61.16076 10.39513 3008 ft 133 kts 15°
2026-05-07 17:37 61.16957 10.40082 3013 ft 132 kts 15°
2026-05-07 17:37 61.17831 10.40635 3016 ft 131 kts 15°
2026-05-07 17:37 61.18700 10.41204 3016 ft 131 kts 16°
2026-05-07 17:38 61.19273 10.41584 3022 ft 131 kts 15°
2026-05-07 17:38 61.20163 10.42181 3023 ft 136 kts 15°
2026-05-07 17:38 61.21071 10.42777 2930 ft 140 kts 15°
2026-05-07 17:38 61.22045 10.43379 2635 ft 149 kts 10°
2026-05-07 17:39 61.23089 10.43600 2362 ft 152 kts
2026-05-07 17:39 61.24151 10.43499 2109 ft 153 kts 353°
2026-05-07 17:39 61.25087 10.42615 2013 ft 143 kts 321°
2026-05-07 17:39 61.25834 10.41365 2014 ft 134 kts 319°
2026-05-07 17:40 61.26541 10.40139 2022 ft 132 kts 319°
2026-05-07 17:40 61.27150 10.38743 2012 ft 132 kts 296°
2026-05-07 17:40 61.27292 10.36896 2012 ft 129 kts 270°
2026-05-07 17:40 61.27276 10.35038 2013 ft 128 kts 269°
2026-05-07 17:41 61.27285 10.33208 2014 ft 128 kts 274°
2026-05-07 17:41 61.27393 10.31365 2013 ft 128 kts 282°
2026-05-07 17:41 61.27718 10.29657 2009 ft 127 kts 301°
2026-05-07 17:41 61.28408 10.28573 2010 ft 128 kts 342°
2026-05-07 17:42 61.29296 10.28400 2018 ft 130 kts 359°
2026-05-07 17:42 61.30199 10.28493 2016 ft 130 kts
2026-05-07 17:42 61.31105 10.28432 2017 ft 130 kts 355°
2026-05-07 17:42 61.32010 10.28301 2017 ft 130 kts 354°
2026-05-07 17:43 61.32919 10.28172 2020 ft 131 kts 353°
2026-05-07 17:43 61.33806 10.27759 2016 ft 131 kts 342°
2026-05-07 17:43 61.34680 10.27212 2017 ft 131 kts 342°
2026-05-07 17:43 61.35551 10.26648 2019 ft 131 kts 341°
2026-05-07 17:44 61.36424 10.26082 2015 ft 131 kts 341°
2026-05-07 17:44 61.37267 10.25430 2022 ft 130 kts 333°
2026-05-07 17:44 61.38080 10.24596 2020 ft 130 kts 332°
2026-05-07 17:44 61.38893 10.23780 2018 ft 130 kts 332°
2026-05-07 17:45 61.39736 10.23101 2019 ft 131 kts 342°
2026-05-07 17:45 61.40614 10.22598 2021 ft 131 kts 344°
2026-05-07 17:45 61.41500 10.22133 2020 ft 131 kts 344°
2026-05-07 17:45 61.42379 10.21629 2019 ft 131 kts 342°
2026-05-07 17:46 61.43257 10.21096 2019 ft 131 kts 342°
2026-05-07 17:46 61.44138 10.20568 2022 ft 132 kts 342°
2026-05-07 17:46 61.45025 10.20033 2023 ft 133 kts 342°
2026-05-07 17:46 61.45898 10.19489 2019 ft 132 kts 340°
2026-05-07 17:47 61.46781 10.18865 2021 ft 132 kts 340°
2026-05-07 17:47 61.47637 10.18247 2020 ft 131 kts 339°
2026-05-07 17:47 61.48500 10.17624 2021 ft 131 kts 340°
2026-05-07 17:47 61.49366 10.16996 1906 ft 130 kts 341°
2026-05-07 17:48 61.50147 10.16393 1656 ft 110 kts 338°
2026-05-07 17:48 61.50839 10.15734 1544 ft 108 kts 331°
2026-05-07 17:48 61.51498 10.14989 1423 ft 107 kts 330°
2026-05-07 17:48 61.52142 10.14261 1316 ft 104 kts 327°
2026-05-07 17:49 61.52664 10.13337 1362 ft 96 kts 316°
2026-05-07 17:49 61.53145 10.12356 1408 ft 98 kts 313°
2026-05-07 17:49 61.53566 10.11180 1361 ft 104 kts 300°
2026-05-07 17:49 61.53913 10.09841 1346 ft 100 kts 299°
2026-05-07 17:50 61.54339 10.08672 1421 ft 104 kts 307°
2026-05-07 17:50 61.54665 10.07386 1563 ft 98 kts 291°
2026-05-07 17:50 61.54772 10.06004 1601 ft 99 kts 241°
2026-05-07 17:50 61.54181 10.05822 1559 ft 94 kts 152°
2026-05-07 17:51 61.53764 10.06748 1546 ft 90 kts 116°
2026-05-07 17:51 61.53623 10.07975 1413 ft 81 kts 98°
2026-05-07 17:51 61.53912 10.08768 1180 ft 74 kts 358°
2026-05-07 17:51 61.54328 10.08201 871 ft 73 kts 302°
2026-05-07 17:52 61.54467 10.07234 674 ft 67 kts 278°
2026-05-07 17:52 61.54536 10.06455 646 ft 34 kts 281°
2026-05-07 17:52 61.54540 10.06299 654 ft 5 kts 182°
2026-05-07 17:52 61.54501 10.06276 646 ft 4 kts 233°
2026-05-07 17:53 61.54510 10.06214 646 ft 5 kts 286°
2026-05-07 17:53 61.54527 10.06187 650 ft 2 kts 12°
2026-05-07 17:53 61.54528 10.06187 649 ft 0 kts